FENGYUN 1C DEB, 29954

Orbit data source: Space-Track

FENGYUN 1C DEB, 29954 is space debris in SSO originally from a launch on Mon, 10 May 1999 UTC launched from the Taiyaun Space Center, China (TSC). Fengyun 1C debris stems from the Chinese weather satellite Fengyun-1C, which was intentionally destroyed by a Chinese anti-satellite missile in 2007. This event dramatically increased the amount of space debris, with thousands of trackable fragments posing hazards to satellites and human spaceflight. The Fengyun 1C debris cloud has become a focal point in discussions about space sustainability and the need for international regulations to prevent the creation of new debris.

Loading next visibility...
Identifier
29954, 1999-025KC
Orbit
SSO
Country
Flag of CNCN / PRC
Related business
Manufacturer
Unknown
Mission
Spacecraft
Bus & Motor
Unknown
Mass
Unknown
Launch date (UTC)
1999-05-10 (27 years ago)
Launch vehicle
Unknown
Launch site
Taiyaun Space Center, China (TSC)
Object type
Payload
Rocket body
Debris
Shape & HBR
Unknown shape, 0.1 m
Radar Cross Section
Medium (>0.1 m² and <1 m²)

Expand to show TLE details & history
Last TLE update: 15 hours ago

TLE from 15 hours ago
0 FENGYUN 1C DEB
1 29954U 99025KC  26167.71874911  .00001685  00000-0  59152-3 0  9999
2 29954 100.1318 242.8525 0074946 105.9528 254.9926 14.35074712  8518
Epoch: 2026-06-16T17:14Z
TLE epoch observation values (Epoch: 2026-06-16T17:14:59.923Z)
Latitude
0.00005°
Longitude
79.11606°
Altitude
791.962 km
Speed
7.45 km/s
True Right ascension
16h 11m 24s
True Declination
0° 00' 00"
Sunlit
Object was in full shadow at epoch
Visualization orbit readout
Latitude
Unknown
Longitude
Unknown
Altitude
Unknown
Speed
Unknown
Apparent Right ascension
Unknown
Apparent Declination
Unknown
Sunlit
N/A
Visualization observer readout
Local Sidereal Time
19:17:32
Azimuth
Unknown
Elevation
Unknown
Doppler factor
Unknown
Orbital elements
Apogee altitude
825.618 km
Perigee altitude
718.443 km
Semi-major axis
7,150.167 km
Eccentricity
0.00749
Inclination
100.1318°
RAAN
242.8525°
Arg. of periapsis
105.9528°
True anomaly
254.16511°
Mean anomaly
254.9926°
Eccentric anomaly
254.57865°
Mean motion
3.58979 °/min
Orbital period
100.28 mins
BSTAR
0.00059152
Loading maneuver chart data...
Computing Atmospheric mass density...

Documentation

Showing up to 5 results
|